Time,TemperatureF,DewpointF,PressureIn,WindDirection,WindDirectionDegrees,WindSpeedMPH,WindSpeedGustMPH,Humidity,HourlyPrecipIn,Conditions,Clouds,dailyrainin,SoftwareType,DateUTC
2013-06-01 00:00:00,79.0,-99.9,-100.00,North,-999,-999.0,-999.0,-999,0.00,,,-99.99,,2013-06-01 05:00:00,
2013-06-01 00:22:00,79.0,-99.9,-100.00,North,-999,-999.0,-999.0,-999,0.00,,,-99.99,,2013-06-01 05:22:00,
2013-06-01 00:32:00,79.0,-99.9,-100.00,North,-999,-999.0,-999.0,-999,0.00,,,-99.99,,2013-06-01 05:32:00,
2013-06-01 00:43:00,79.0,-99.9,-100.00,North,-999,-999.0,-999.0,-999,0.00,,,-99.99,,2013-06-01 05:43:00,
2013-06-01 00:53:00,79.0,-99.9,-100.00,North,-999,-999.0,-999.0,-999,0.00,,,-99.99,,2013-06-01 05:53:00,
2013-06-01 01:00:00,76.0,-99.9,-100.00,North,-999,-999.0,-999.0,-999,0.00,,,-99.99,,2013-06-01 06:00:00,
2013-06-01 01:22:00,76.0,-99.9,-100.00,North,-999,-999.0,-999.0,-999,0.00,,,-99.99,,2013-06-01 06:22:00,
2013-06-01 01:32:00,76.0,-99.9,-100.00,North,-999,-999.0,-999.0,-999,0.00,,,-99.99,,2013-06-01 06:32:00,
2013-06-01 01:42:00,76.0,-99.9,-100.00,North,-999,-999.0,-999.0,-999,0.00,,,-99.99,,2013-06-01 06:42:00,
2013-06-01 01:52:00,76.0,-99.9,-100.00,North,-999,-999.0,-999.0,-999,0.00,,,-99.99,,2013-06-01 06:52:00,
2013-06-01 02:00:00,71.0,-99.9,-100.00,North,-999,-999.0,-999.0,-999,0.00,,,-99.99,,2013-06-01 07:00:00,
2013-06-01 02:22:00,71.0,-99.9,-100.00,North,-999,-999.0,-999.0,-999,0.00,,,-99.99,,2013-06-01 07:22:00,
2013-06-01 02:32:00,71.0,-99.9,-100.00,North,-999,-999.0,-999.0,-999,0.00,,,-99.99,,2013-06-01 07:32:00,
2013-06-01 02:42:00,71.0,-99.9,-100.00,North,-999,-999.0,-999.0,-999,0.00,,,-99.99,,2013-06-01 07:42:00,
2013-06-01 02:52:00,71.0,-99.9,-100.00,North,-999,-999.0,-999.0,-999,0.00,,,-99.99,,2013-06-01 07:52:00,
2013-06-01 03:00:00,65.0,-99.9,-100.00,North,-999,-999.0,-999.0,-999,0.05,,,-99.99,,2013-06-01 08:00:00,
2013-06-01 03:22:00,65.0,-99.9,-100.00,North,-999,-999.0,-999.0,-999,0.05,,,-99.99,,2013-06-01 08:22:00,
2013-06-01 03:32:00,65.0,-99.9,-100.00,North,-999,-999.0,-999.0,-999,0.05,,,-99.99,,2013-06-01 08:32:00,
2013-06-01 03:42:00,65.0,-99.9,-100.00,North,-999,-999.0,-999.0,-999,0.05,,,-99.99,,2013-06-01 08:42:00,
2013-06-01 03:52:00,65.0,-99.9,-100.00,North,-999,-999.0,-999.0,-999,0.05,,,-99.99,,2013-06-01 08:52:00,
2013-06-01 04:00:00,64.0,-99.9,-100.00,North,-999,-999.0,-999.0,-999,0.36,,,-99.99,,2013-06-01 09:00:00,
2013-06-01 04:22:00,64.0,-99.9,-100.00,North,-999,-999.0,-999.0,-999,0.36,,,-99.99,,2013-06-01 09:22:00,
2013-06-01 04:33:00,64.0,-99.9,-100.00,North,-999,-999.0,-999.0,-999,0.36,,,-99.99,,2013-06-01 09:33:00,
2013-06-01 04:43:00,64.0,-99.9,-100.00,North,-999,-999.0,-999.0,-999,0.36,,,-99.99,,2013-06-01 09:43:00,
2013-06-01 04:53:00,64.0,-99.9,-100.00,North,-999,-999.0,-999.0,-999,0.36,,,-99.99,,2013-06-01 09:53:00,
2013-06-01 05:00:00,64.0,-99.9,-100.00,North,-999,-999.0,-999.0,-999,0.04,,,-99.99,,2013-06-01 10:00:00,
2013-06-01 05:22:00,64.0,-99.9,-100.00,North,-999,-999.0,-999.0,-999,0.04,,,-99.99,,2013-06-01 10:22:00,
2013-06-01 05:33:00,64.0,-99.9,-100.00,North,-999,-999.0,-999.0,-999,0.04,,,-99.99,,2013-06-01 10:33:00,
2013-06-01 05:43:00,64.0,-99.9,-100.00,North,-999,-999.0,-999.0,-999,0.04,,,-99.99,,2013-06-01 10:43:00,
2013-06-01 05:53:00,64.0,-99.9,-100.00,North,-999,-999.0,-999.0,-999,0.04,,,-99.99,,2013-06-01 10:53:00,
2013-06-01 06:00:00,64.0,-99.9,-100.00,North,-999,-999.0,-999.0,-999,0.00,,,-99.99,,2013-06-01 11:00:00,
2013-06-01 06:22:00,64.0,-99.9,-100.00,North,-999,-999.0,-999.0,-999,0.00,,,-99.99,,2013-06-01 11:22:00,
2013-06-01 06:33:00,64.0,-99.9,-100.00,North,-999,-999.0,-999.0,-999,0.00,,,-99.99,,2013-06-01 11:33:00,
2013-06-01 06:42:00,64.0,-99.9,-100.00,North,-999,-999.0,-999.0,-999,0.00,,,-99.99,,2013-06-01 11:42:00,
2013-06-01 06:52:00,64.0,-99.9,-100.00,North,-999,-999.0,-999.0,-999,0.00,,,-99.99,,2013-06-01 11:52:00,
2013-06-01 07:00:00,64.0,-99.9,-100.00,North,-999,-999.0,-999.0,-999,0.00,,,-99.99,,2013-06-01 12:00:00,
2013-06-01 07:22:00,64.0,-99.9,-100.00,North,-999,-999.0,-999.0,-999,0.00,,,-99.99,,2013-06-01 12:22:00,
2013-06-01 07:32:00,64.0,-99.9,-100.00,North,-999,-999.0,-999.0,-999,0.00,,,-99.99,,2013-06-01 12:32:00,
2013-06-01 07:42:00,64.0,-99.9,-100.00,North,-999,-999.0,-999.0,-999,0.00,,,-99.99,,2013-06-01 12:42:00,
2013-06-01 07:52:00,64.0,-99.9,-100.00,North,-999,-999.0,-999.0,-999,0.00,,,-99.99,,2013-06-01 12:52:00,
2013-06-01 08:00:00,64.0,-99.9,-100.00,North,-999,-999.0,-999.0,-999,0.01,,,-99.99,,2013-06-01 13:00:00,
2013-06-01 08:22:00,64.0,-99.9,-100.00,North,-999,-999.0,-999.0,-999,0.01,,,-99.99,,2013-06-01 13:22:00,
2013-06-01 08:32:00,64.0,-99.9,-100.00,North,-999,-999.0,-999.0,-999,0.01,,,-99.99,,2013-06-01 13:32:00,
2013-06-01 08:42:00,64.0,-99.9,-100.00,North,-999,-999.0,-999.0,-999,0.01,,,-99.99,,2013-06-01 13:42:00,
2013-06-01 08:52:00,64.0,-99.9,-100.00,North,-999,-999.0,-999.0,-999,0.01,,,-99.99,,2013-06-01 13:52:00,
2013-06-01 09:00:00,65.0,-99.9,-100.00,North,-999,-999.0,-999.0,-999,0.00,,,-99.99,,2013-06-01 14:00:00,
2013-06-01 09:22:00,65.0,-99.9,-100.00,North,-999,-999.0,-999.0,-999,0.00,,,-99.99,,2013-06-01 14:22:00,
2013-06-01 09:32:00,65.0,-99.9,-100.00,North,-999,-999.0,-999.0,-999,0.00,,,-99.99,,2013-06-01 14:32:00,
2013-06-01 09:42:00,65.0,-99.9,-100.00,North,-999,-999.0,-999.0,-999,0.00,,,-99.99,,2013-06-01 14:42:00,
2013-06-01 09:52:00,65.0,-99.9,-100.00,North,-999,-999.0,-999.0,-999,0.00,,,-99.99,,2013-06-01 14:52:00,
2013-06-01 10:00:00,67.0,-99.9,-100.00,North,-999,-999.0,-999.0,-999,0.00,,,-99.99,,2013-06-01 15:00:00,
2013-06-01 10:22:00,67.0,-99.9,-100.00,North,-999,-999.0,-999.0,-999,0.00,,,-99.99,,2013-06-01 15:22:00,
2013-06-01 10:34:00,67.0,-99.9,-100.00,North,-999,-999.0,-999.0,-999,0.00,,,-99.99,,2013-06-01 15:34:00,
2013-06-01 10:43:00,67.0,-99.9,-100.00,North,-999,-999.0,-999.0,-999,0.00,,,-99.99,,2013-06-01 15:43:00,
2013-06-01 10:54:00,67.0,-99.9,-100.00,North,-999,-999.0,-999.0,-999,0.00,,,-99.99,,2013-06-01 15:54:00,
2013-06-01 11:00:00,70.0,-99.9,-100.00,North,-999,-999.0,-999.0,-999,0.00,,,0.46,,2013-06-01 16:00:00,
2013-06-01 11:23:00,70.0,-99.9,-100.00,North,-999,-999.0,-999.0,-999,0.00,,,0.46,,2013-06-01 16:23:00,
2013-06-01 11:33:00,70.0,-99.9,-100.00,North,-999,-999.0,-999.0,-999,0.00,,,0.46,,2013-06-01 16:33:00,
2013-06-01 11:43:00,70.0,-99.9,-100.00,North,-999,-999.0,-999.0,-999,0.00,,,0.46,,2013-06-01 16:43:00,
2013-06-01 11:53:00,70.0,-99.9,-100.00,North,-999,-999.0,-999.0,-999,0.00,,,0.46,,2013-06-01 16:53:00,
2013-06-01 12:00:00,71.0,-99.9,-100.00,North,-999,-999.0,-999.0,-999,0.00,,,0.46,,2013-06-01 17:00:00,
2013-06-01 12:22:00,71.0,-99.9,-100.00,North,-999,-999.0,-999.0,-999,0.00,,,0.46,,2013-06-01 17:22:00,
2013-06-01 12:32:00,71.0,-99.9,-100.00,North,-999,-999.0,-999.0,-999,0.00,,,0.46,,2013-06-01 17:32:00,
2013-06-01 12:43:00,71.0,-99.9,-100.00,North,-999,-999.0,-999.0,-999,0.00,,,0.46,,2013-06-01 17:43:00,
2013-06-01 12:52:00,71.0,-99.9,-100.00,North,-999,-999.0,-999.0,-999,0.00,,,0.46,,2013-06-01 17:52:00,
2013-06-01 13:00:00,75.0,-99.9,-100.00,North,-999,-999.0,-999.0,-999,0.00,,,0.46,,2013-06-01 18:00:00,
2013-06-01 13:22:00,75.0,-99.9,-100.00,North,-999,-999.0,-999.0,-999,0.00,,,0.46,,2013-06-01 18:22:00,
2013-06-01 13:32:00,75.0,-99.9,-100.00,North,-999,-999.0,-999.0,-999,0.00,,,0.46,,2013-06-01 18:32:00,
2013-06-01 13:42:00,75.0,-99.9,-100.00,North,-999,-999.0,-999.0,-999,0.00,,,0.46,,2013-06-01 18:42:00,
2013-06-01 13:52:00,75.0,-99.9,-100.00,North,-999,-999.0,-999.0,-999,0.00,,,0.46,,2013-06-01 18:52:00,
2013-06-01 14:00:00,76.0,-99.9,-100.00,North,-999,-999.0,-999.0,-999,0.00,,,0.46,,2013-06-01 19:00:00,
2013-06-01 14:22:00,76.0,-99.9,-100.00,North,-999,-999.0,-999.0,-999,0.00,,,0.46,,2013-06-01 19:22:00,
2013-06-01 14:32:00,76.0,-99.9,-100.00,North,-999,-999.0,-999.0,-999,0.00,,,0.46,,2013-06-01 19:32:00,
2013-06-01 14:42:00,76.0,-99.9,-100.00,North,-999,-999.0,-999.0,-999,0.00,,,0.46,,2013-06-01 19:42:00,
2013-06-01 14:53:00,76.0,-99.9,-100.00,North,-999,-999.0,-999.0,-999,0.00,,,0.46,,2013-06-01 19:53:00,
2013-06-01 15:00:00,77.0,-99.9,-100.00,North,-999,-999.0,-999.0,-999,0.00,,,0.46,,2013-06-01 20:00:00,
2013-06-01 15:32:00,77.0,-99.9,-100.00,North,-999,-999.0,-999.0,-999,0.00,,,0.46,,2013-06-01 20:32:00,
2013-06-01 15:42:00,77.0,-99.9,-100.00,North,-999,-999.0,-999.0,-999,0.00,,,0.46,,2013-06-01 20:42:00,
2013-06-01 15:52:00,77.0,-99.9,-100.00,North,-999,-999.0,-999.0,-999,0.00,,,0.46,,2013-06-01 20:52:00,
2013-06-01 16:00:00,77.0,-99.9,-100.00,North,-999,-999.0,-999.0,-999,0.00,,,0.46,,2013-06-01 21:00:00,
2013-06-01 16:22:00,77.0,-99.9,-100.00,North,-999,-999.0,-999.0,-999,0.00,,,0.46,,2013-06-01 21:22:00,
2013-06-01 16:34:00,77.0,-99.9,-100.00,North,-999,-999.0,-999.0,-999,0.00,,,0.46,,2013-06-01 21:34:00,
2013-06-01 16:43:00,77.0,-99.9,-100.00,North,-999,-999.0,-999.0,-999,0.00,,,0.46,,2013-06-01 21:43:00,
2013-06-01 16:54:00,77.0,-99.9,-100.00,North,-999,-999.0,-999.0,-999,0.00,,,0.46,,2013-06-01 21:54:00,
2013-06-01 17:00:00,77.0,-99.9,-100.00,North,-999,-999.0,-999.0,-999,0.00,,,0.46,,2013-06-01 22:00:00,
2013-06-01 17:23:00,77.0,-99.9,-100.00,North,-999,-999.0,-999.0,-999,0.00,,,0.46,,2013-06-01 22:23:00,
2013-06-01 17:33:00,77.0,-99.9,-100.00,North,-999,-999.0,-999.0,-999,0.00,,,0.46,,2013-06-01 22:33:00,
2013-06-01 17:42:00,77.0,-99.9,-100.00,North,-999,-999.0,-999.0,-999,0.00,,,0.46,,2013-06-01 22:42:00,
2013-06-01 17:53:00,77.0,-99.9,-100.00,North,-999,-999.0,-999.0,-999,0.00,,,0.46,,2013-06-01 22:53:00,
2013-06-01 18:00:00,77.0,-99.9,-100.00,North,-999,-999.0,-999.0,-999,0.00,,,0.46,,2013-06-01 23:00:00,
2013-06-01 18:22:00,77.0,-99.9,-100.00,North,-999,-999.0,-999.0,-999,0.00,,,0.46,,2013-06-01 23:22:00,
2013-06-01 18:32:00,77.0,-99.9,-100.00,North,-999,-999.0,-999.0,-999,0.00,,,0.46,,2013-06-01 23:32:00,
2013-06-01 18:43:00,77.0,-99.9,-100.00,North,-999,-999.0,-999.0,-999,0.00,,,0.46,,2013-06-01 23:43:00,
2013-06-01 18:52:00,77.0,-99.9,-100.00,North,-999,-999.0,-999.0,-999,0.00,,,0.46,,2013-06-01 23:52:00,
2013-06-01 19:00:00,76.0,-99.9,-100.00,North,-999,-999.0,-999.0,-999,0.00,,,0.46,,2013-06-02 00:00:00,
2013-06-01 19:22:00,76.0,-99.9,-100.00,North,-999,-999.0,-999.0,-999,0.00,,,0.46,,2013-06-02 00:22:00,
2013-06-01 19:32:00,76.0,-99.9,-100.00,North,-999,-999.0,-999.0,-999,0.00,,,0.46,,2013-06-02 00:32:00,
2013-06-01 19:42:00,76.0,-99.9,-100.00,North,-999,-999.0,-999.0,-999,0.00,,,0.46,,2013-06-02 00:42:00,
2013-06-01 19:52:00,76.0,-99.9,-100.00,North,-999,-999.0,-999.0,-999,0.00,,,0.46,,2013-06-02 00:52:00,
2013-06-01 20:00:00,74.0,-99.9,-100.00,North,-999,-999.0,-999.0,-999,0.00,,,0.46,,2013-06-02 01:00:00,
2013-06-01 20:22:00,74.0,-99.9,-100.00,North,-999,-999.0,-999.0,-999,0.00,,,0.46,,2013-06-02 01:22:00,
2013-06-01 20:32:00,74.0,-99.9,-100.00,North,-999,-999.0,-999.0,-999,0.00,,,0.46,,2013-06-02 01:32:00,
2013-06-01 20:42:00,74.0,-99.9,-100.00,North,-999,-999.0,-999.0,-999,0.00,,,0.46,,2013-06-02 01:42:00,
2013-06-01 20:52:00,74.0,-99.9,-100.00,North,-999,-999.0,-999.0,-999,0.00,,,0.46,,2013-06-02 01:52:00,
2013-06-01 21:00:00,72.0,-99.9,-100.00,North,-999,-999.0,-999.0,-999,0.00,,,0.46,,2013-06-02 02:00:00,
2013-06-01 21:22:00,72.0,-99.9,-100.00,North,-999,-999.0,-999.0,-999,0.00,,,0.46,,2013-06-02 02:22:00,
2013-06-01 21:32:00,72.0,-99.9,-100.00,North,-999,-999.0,-999.0,-999,0.00,,,0.46,,2013-06-02 02:32:00,
2013-06-01 21:42:00,72.0,-99.9,-100.00,North,-999,-999.0,-999.0,-999,0.00,,,0.46,,2013-06-02 02:42:00,
2013-06-01 21:52:00,72.0,-99.9,-100.00,North,-999,-999.0,-999.0,-999,0.00,,,0.46,,2013-06-02 02:52:00,
2013-06-01 22:00:00,69.0,-99.9,-100.00,North,-999,-999.0,-999.0,-999,0.00,,,0.46,,2013-06-02 03:00:00,
2013-06-01 22:22:00,69.0,-99.9,-100.00,North,-999,-999.0,-999.0,-999,0.00,,,0.46,,2013-06-02 03:22:00,
2013-06-01 22:33:00,69.0,-99.9,-100.00,North,-999,-999.0,-999.0,-999,0.00,,,0.46,,2013-06-02 03:33:00,
2013-06-01 22:43:00,69.0,-99.9,-100.00,North,-999,-999.0,-999.0,-999,0.00,,,0.46,,2013-06-02 03:43:00,
2013-06-01 22:53:00,69.0,-99.9,-100.00,North,-999,-999.0,-999.0,-999,0.00,,,0.46,,2013-06-02 03:53:00,
2013-06-01 23:00:00,67.0,-99.9,-100.00,North,-999,-999.0,-999.0,-999,0.00,,,0.46,,2013-06-02 04:00:00,
2013-06-01 23:23:00,67.0,-99.9,-100.00,North,-999,-999.0,-999.0,-999,0.00,,,0.46,,2013-06-02 04:23:00,
2013-06-01 23:33:00,67.0,-99.9,-100.00,North,-999,-999.0,-999.0,-999,0.00,,,0.46,,2013-06-02 04:33:00,
2013-06-01 23:43:00,67.0,-99.9,-100.00,North,-999,-999.0,-999.0,-999,0.00,,,0.46,,2013-06-02 04:43:00,
2013-06-01 23:53:00,67.0,-99.9,-100.00,North,-999,-999.0,-999.0,-999,0.00,,,0.46,,2013-06-02 04:53:00,